GW3529 Weather Reports


Display with metric or nautical units.
time (UTC)temp
F
wind
direction
speed
MPH
gust
MPH
rain 1hr
in
rain 24hr
in
rain mn
in
humidity
%
barometer
mb
20260504044538 56 244 0.0 3.0 0.00 0.05 0.05 49 1003.6
20260504043038 56 242 1.0 4.0 0.00 0.05 0.05 50 1003.6
20260504041537 57 242 4.0 9.0 0.00 0.05 0.05 50 1003.7
20260504040044 57 209 8.0 11.0 0.00 0.05 0.05 50 1003.6
20260504034541 57 210 9.0 11.0 0.00 0.05 0.05 52 1003.6
20260504033038 57 210 6.0 14.0 0.00 0.05 0.05 56 1003.7
20260504031543 56 197 8.0 10.0 0.00 0.05 0.05 60 1003.6
20260504030035 57 169 6.0 10.0 0.00 0.05 0.05 60 1003.5
20260504024534 57 168 5.0 9.0 0.00 0.05 0.05 59 1003.3
20260504023033 59 173 7.0 10.0 0.00 0.05 0.05 57 1003.2
20260504021533 59 171 8.0 11.0 0.00 0.05 0.05 56 1003.2
20260504020033 58 162 8.0 10.0 0.00 0.05 0.05 58 1003.3
20260504014530 60 176 6.0 12.0 0.00 0.05 0.05 56 1003.4
20260504013035 61 178 7.0 14.0 0.00 0.05 0.05 53 1003.6
20260504011529 62 178 11.0 19.0 0.00 0.05 0.05 50 1003.7
20260504010025 63 166 9.0 16.0 0.00 0.05 0.05 50 1003.9
20260504004526 64 167 6.0 13.0 0.00 0.05 0.05 49 1004.2
20260504003028 65 176 9.0 15.0 0.00 0.05 0.05 46 1004.4
20260504001521 65 168 9.0 12.0 0.01 0.05 0.05 48 1004.7
20260504000045 64 166 9.0 12.0 0.01 0.05 0.05 53 1005.0
20260503234514 64 149 6.0 14.0 0.01 0.05 0.05 51 1005.2
20260503233012 63 205 10.0 15.0 0.01 0.05 0.05 53 1005.5
20260503231510 62 207 8.0 10.0 0.00 0.04 0.04 55 1005.7
20260503230008 62 223 8.0 12.0 0.00 0.04 0.04 56 1006.0
20260503224505 60 218 8.0 12.0 0.00 0.04 0.04 60 1006.5
20260503223002 58 229 5.0 15.0 0.00 0.04 0.04 65 1006.8
20260503221601 57 216 6.0 10.0 0.00 0.04 0.04 69 1007.3
20260503221501 57 213 6.0 10.0 0.00 0.04 0.04 72 1007.4
20260503220059 57 200 5.0 9.0 0.00 0.04 0.04 74 1007.5
20260503214557 56 202 2.0 8.0 0.01 0.04 0.04 75 1007.5
20260503213100 55 206 6.0 9.0 0.04 0.04 0.04 77 1007.9
20260503211617 54 155 2.0 5.0 0.04 0.04 0.04 77 1008.0
20260503210053 54 155 2.0 8.0 0.04 0.04 0.04 74 1008.5
20260503204549 59 5 7.0 16.0 0.03 0.03 0.03 57 1008.9
20260503203105 62 198 5.0 7.0 0.00 0.00 0.00 47 1008.1
20260503201548 63 180 3.0 10.0 0.00 0.00 0.00 45 1007.7
20260503200045 64 176 9.0 13.0 0.00 0.00 0.00 45 1007.9
20260503194550 63 193 6.0 10.0 0.00 0.00 0.00 45 1008.2
20260503193041 63 250 3.0 5.0 0.00 0.00 0.00 46 1008.3
20260503191541 62 355 3.0 9.0 0.00 0.00 0.00 47 1008.5
20260503190040 62 17 9.0 14.0 0.00 0.00 0.00 45 1008.8
20260503184536 61 350 9.0 18.0 0.00 0.00 0.00 50 1008.8
20260503183033 63 340 9.0 20.0 0.00 0.00 0.00 45 1009.4
20260503181532 64 36 3.0 11.0 0.00 0.00 0.00 41 1009.2
20260503180032 65 40 8.0 15.0 0.00 0.00 0.00 38 1009.4
20260503174529 65 344 11.0 18.0 0.00 0.00 0.00 39 1009.5
20260503173042 64 30 4.0 15.0 0.00 0.00 0.00 41 1009.8
20260503171535 63 24 13.0 17.0 0.00 0.00 0.00 39 1010.0
20260503081502 49 182 1.0 4.0 0.00 0.00 0.00 59 1012.4
20260503071601 50 177 0.0 4.0 0.00 0.00 0.00 56 1011.7
20260503054543 51 174 2.0 4.0 0.00 0.00 0.00 55 1011.8
20260503053044 50 173 1.0 3.0 0.00 0.00 0.00 56 1011.7
20260503051541 50 173 2.0 4.0 0.00 0.00 0.00 56 1011.7